This is the latest recevied weather packets stored in our database for station/object OE3TEC-15. If no packets are shown the sender has not sent any weather packets the latest 1 day(s).
| Time | Temp. | Humidity | Pressure | Rain* | Wind** | Luminosity | Snow |
|---|---|---|---|---|---|---|---|
| 1778011043 | 17.22° C | 55% | 1005.1 hPa | 0 mm | 1.34 m/s, 81° | 0 W/m² | - |
| 1778010435 | 17.22° C | 54% | 1005.2 hPa | 0 mm | 1.34 m/s, 74° | 0 W/m² | - |
| 1778009828 | 17.78° C | 53% | 1005 hPa | 0 mm | 1.79 m/s, 83° | 0 W/m² | - |
| 1778009220 | 17.78° C | 52% | 1005.1 hPa | 0 mm | 1.79 m/s, 80° | 0 W/m² | - |
| 1778008614 | 18.33° C | 51% | 1005.1 hPa | 0 mm | 1.79 m/s, 88° | 0 W/m² | - |
| 1778008005 | 18.89° C | 50% | 1004.9 hPa | 0 mm | 1.34 m/s, 92° | 0 W/m² | - |
| 1778007403 | 18.89° C | 49% | 1004.9 hPa | 0 mm | 1.34 m/s, 89° | 0 W/m² | - |
| 1778006792 | 19.44° C | 49% | 1004.8 hPa | 0 mm | 1.34 m/s, 96° | 0 W/m² | - |
| 1778006192 | 20° C | 47% | 1004.7 hPa | 0 mm | 1.34 m/s, 97° | 0 W/m² | - |
| 1778005587 | 20.56° C | 46% | 1004.9 hPa | 0 mm | 1.34 m/s, 90° | 1 W/m² | - |
| 1778004980 | 20.56° C | 46% | 1004.9 hPa | 0 mm | 1.34 m/s, 105° | 2 W/m² | - |
| 1778004371 | 21.11° C | 45% | 1004.9 hPa | 0 mm | 1.34 m/s, 98° | 4 W/m² | - |
| 1778003765 | 21.67° C | 44% | 1004.9 hPa | 0 mm | 1.34 m/s, 107° | 8 W/m² | - |
| 1778003164 | 22.22° C | 43% | 1004.8 hPa | 0 mm | 1.79 m/s, 91° | 14 W/m² | - |
| 1778002561 | 22.22° C | 42% | 1004.9 hPa | 0 mm | 1.79 m/s, 92° | 24 W/m² | - |
| 1778001953 | 22.78° C | 41% | 1004.6 hPa | 0 mm | 1.79 m/s, 94° | 37 W/m² | - |
| 1778001346 | 23.33° C | 41% | 1004.9 hPa | 0 mm | 1.79 m/s, 98° | 43 W/m² | - |
| 1778000737 | 23.33° C | 40% | 1005 hPa | 0 mm | 1.79 m/s, 102° | 46 W/m² | - |
| 1778000131 | 23.89° C | 39% | 1004.9 hPa | 0 mm | 1.79 m/s, 115° | 54 W/m² | - |
| 1777999523 | 24.44° C | 38% | 1005 hPa | 0 mm | 2.24 m/s, 104° | 61 W/m² | - |
| 1777998916 | 24.44° C | 38% | 1004.7 hPa | 0 mm | 1.79 m/s, 111° | 68 W/m² | - |
| 1777998309 | 25° C | 36% | 1004.7 hPa | 0 mm | 1.34 m/s, 122° | 60 W/m² | - |
| 1777997701 | 25.56° C | 34% | 1004.9 hPa | 0 mm | 1.79 m/s, 149° | 54 W/m² | - |
| 1777997093 | 26.11° C | 33% | 1004.9 hPa | 0 mm | 2.24 m/s, 110° | 67 W/m² | - |
| 1777996486 | 26.67° C | 33% | 1004.9 hPa | 0 mm | 1.79 m/s, 138° | 124 W/m² | - |
* Rain latest hour (hover to see other rain measurements)
** Current wind speed in m/s (hover to see current wind gust speed)